Location: Peach Mountain Observatory
(42.3967°N, 83.9367°W)
Time: 03:31:03
(UTC-05:00)

Vanguard 2 - Pass Details

Date: 28 January 2020
Orbit: 552 x 2939 km, 32.9° (Epoch: 19 February)

Event Time Altitude Azimuth Distance (km) Brightness Sun altitude
Rises 07:01:11 0° 188° (S) 6,776 12.5 -10.0°
Reaches altitude 10° 07:09:20 10° 167° (SSE) 5,689 12.4 -8.5°
Maximum altitude 07:16:33 14° 142° (SE) 5,103 12.6 -7.2°
Drops below altitude 10° 07:23:04 10° 116° (ESE) 5,097 13.5 -6.1°
Sets 07:29:22 0° 94° (E) 5,639 13.8 -5.0°
